Weather Roundup
Issued by NWS

Home | Current Version | Previous Version | Graphics & Text | Print | Product List | Glossary Off
Versions: 1 2 3 4 5 6 7 8 9 10 11 12 13 14 15 16 17 18 19 20 21 22 23 24 25 26 27 28 29 30 31 32 33 34 35 36 37 38 39 40 41 42 43 44 45 46 47 48 49 50

000
NZUS93 KARX 270510
HRRWXR

CURRENT HOURLY OBSERVATIONS ACROSS
MUCH OF THE UPPER MISSISSIPPI VALLEY
NATIONAL WEATHER SERVICE LA CROSSE WI
1100 PM CST FRI DEC 26 2014


...SOUTHEAST MINNESOTA...


CITY           SKY/WX    TMP DP  RH WIND       PRES   REMARKS
ROCHESTER      LGT SNOW  30  28  92 N12       29.97F VSB 1   WCI  20
ROCHESTER/MAYO CLOUDY    31  31  98 N5        29.98F WCI  26
WINONA         LGT SNOW  34  34 100 NW3       30.00F
AUSTIN         MIX PCPN  30  28  93 N9        29.96F WCI  22
ALBERT LEA     CLOUDY    30  28  93 N12       29.97F WCI  21
DODGE CENTER   LGT SNOW  30  28  93 N12       29.98F WCI  21
PRESTON        LGT SNOW  31  30  98 N6        29.96F WCI  25
OWATONNA       DRIZZLE   28  27  93 N12       30.00F WCI  18
FARIBAULT      LGT SNOW  28  27  93 N10       30.01F WCI  19
$$

...ELSEWHERE IN MINNESOTA...


CITY           SKY/WX    TMP DP  RH WIND       PRES   REMARKS
MINNEAPOLIS    LGT SNOW  28  25  88 N10       30.06F FOG     WCI  19
INTNL FALLS    CLOUDY    16  10  77 NW7       30.14S WCI   6
DULUTH         CLOUDY    25  17  72 N6        30.07R WCI  18
RED WING       LGT SNOW  30  28  93 N3        30.03F VSB 1
REDWOOD FALLS  LGT SNOW  26  23  88 N8        30.08S FOG     WCI  18
MANKATO        CLOUDY    28  23  80 N16       30.01F WCI  17
WORTHINGTON    CLOUDY    23 -22  13 N15       30.03F WCI  10
FAIRMONT       CLOUDY    28  25  86 N16G23    30.00F WCI  17
$$

...SOUTHWEST WISCONSIN...


CITY           SKY/WX    TMP DP  RH WIND       PRES   REMARKS
LA CROSSE      CLOUDY    34  32  92 NW10      29.97F FOG     WCI  26
PRAIRIE DU CHI CLOUDY    32  31  94 CALM      29.98R
BOSCOBEL       CLOUDY    32  29  88 NE3       29.97F
LONE ROCK      CLOUDY    36  31  82 CALM      29.98S
PLATTEVILLE    CLOUDY    37  34  91 E9        29.97F WCI  30
FORT MC COY    MOCLDY    33  33  99 NE3       29.98F FOG
CAMP DOUGLAS   CLOUDY    33  33 100 NE3       29.97F
VIROQUA        FAIR      33  33 100 E6        29.94F WCI  27
WIS DELLS      MOCLDY    32  31  98 CALM      29.98R FOG
$$

...ELSEWHERE IN WISCONSIN...


CITY           SKY/WX    TMP DP  RH WIND       PRES   REMARKS
MILWAUKEE      MOCLDY    42  37  82 S5        30.01S
MADISON        CLOUDY    34  32  92 CALM      29.98F
GREEN BAY      CLOUDY    35  33  92 NE8       30.02S FOG     WCI  29
EAU CLAIRE     LGT SNOW  31  28  89 N6        30.02R FOG     WCI  25
BLACK RVR FLS  CLOUDY    33  33 100 N5        29.98F FOG     WCI  28
MEDFORD        LGT SNOW  30  29  96 NE7       29.98F WCI  23
WAUSAU         LGT SNOW  33  31  92 E3        29.98F FOG
WIS RAPIDS     CLOUDY    33  30  88 NE6       30.00F WCI  28
MARSHFIELD     LGT SNOW  33  31  92 E6        29.98F FOG     WCI  28
RICE LAKE      CLOUDY    29  27  90 N8        30.05S WCI  21
$$

...NORTHEAST IOWA...


CITY           SKY/WX    TMP DP  RH WIND       PRES   REMARKS
DECORAH        CLOUDY    34  32  93 CALM      29.94S FOG
MASON CITY     CLOUDY    31  29  92 N13       29.98S WCI  21
CHARLES CITY   LGT SNOW  34  34 100 NE8       29.96S WCI  27
OELWEIN        CLOUDY    34  32  93 E8        29.94F WCI  27
$$

...ELSEWHERE IN IOWA...


CITY           SKY/WX    TMP DP  RH WIND       PRES   REMARKS
DES MOINES     DRIZZLE   35  32  88 CALM      29.97F FOG
IOWA CITY      LGT RAIN  41  38  89 NE3       29.97F
FORT DODGE     CLOUDY    30  28  93 N8        29.99S WCI  23
$$

...NORTHERN ILLINOIS...


CITY           SKY/WX    TMP DP  RH WIND       PRES   REMARKS
CHICAGO-OHARE  CLOUDY    46  41  82 S8        30.02R
CHICAGO-MIDWAY CLOUDY    48  43  82 S8        30.03S
MOLINE         LGT RAIN  44  40  85 E5        29.95F
ROCKFORD       CLOUDY    43  39  86 CALM      30.02S
PEORIA         MOCLDY    47  42  83 S12       30.01R
$$

NOTE: "FAIR" INDICATES FEW OR NO CLOUDS BELOW 12,000 FEET WITH NO
SIGNIFICANT WEATHER AND/OR OBSTRUCTIONS TO VISIBILITY. WIND
SPEEDS ARE IN MILES-PER-HOUR.



USA.gov is the U.S. government's official web portal to all federal, state and local government web resources and services.